DW7995 Weather Reports


time (UTC)temp
C
wind
direction
speed
KPH
gust
KPH
rain 1hr
cm
rain 24hr
cm
rain mn
cm
humidity
%
barometer
mb
20260506104038 16 0 1.6 14.5 0.00 0.00 0.00 39 1021.2
20260506103538 16 267 3.2 14.5 0.00 0.00 0.00 39 1021.2
20260506103044 16 282 3.2 22.5 0.00 0.00 0.00 38 1021.2
20260506102538 16 223 6.4 22.5 0.00 0.00 0.00 38 1021.2
20260506102037 16 158 3.2 11.3 0.00 0.00 0.00 38 1021.2
20260506101549 16 232 4.8 12.9 0.00 0.00 0.00 39 1021.2
20260506101038 16 0 4.8 12.9 0.00 0.00 0.00 39 1021.2
20260506100539 16 261 4.8 12.9 0.00 0.00 0.00 38 1021.2
20260506100047 16 225 3.2 12.9 0.00 0.00 0.00 39 1021.2
20260506095538 16 231 0.0 11.3 0.00 0.00 0.00 39 1021.2
20260506095040 16 251 4.8 11.3 0.00 0.00 0.00 39 1021.2
20260506094604 16 263 3.2 9.7 0.00 0.00 0.00 39 1021.2
20260506094042 16 258 3.2 6.4 0.00 0.00 0.00 39 1021.2
20260506093540 16 0 0.0 6.4 0.00 0.00 0.00 39 1021.2
20260506093052 16 247 0.0 6.4 0.00 0.00 0.00 39 1021.2
20260506092538 15 216 1.6 6.4 0.00 0.00 0.00 39 1021.2
20260506092038 15 0 0.0 0.0 0.00 0.00 0.00 41 1021.2
20260506091551 15 0 0.0 0.0 0.00 0.00 0.00 42 1021.2
20260506091041 15 0 0.0 0.0 0.00 0.00 0.00 42 1021.2
20260506090538 14 0 0.0 0.0 0.00 0.00 0.00 44 1021.2
20260506090049 13 0 0.0 0.0 0.00 0.00 0.00 47 1021.2
20260506085538 13 0 0.0 0.0 0.00 0.00 0.00 49 1021.2
20260506085039 13 0 0.0 0.0 0.00 0.00 0.00 49 1021.2
20260506084550 13 0 0.0 0.0 0.00 0.00 0.00 47 1021.2
20260506084039 13 0 0.0 0.0 0.00 0.00 0.00 47 1021.2
20260506083543 14 0 0.0 0.0 0.00 0.00 0.00 46 1021.2
20260506083051 15 0 0.0 0.0 0.00 0.00 0.00 45 1021.2
20260506082538 15 0 0.0 0.0 0.00 0.00 0.00 43 1021.2
20260506082038 16 0 0.0 0.0 0.00 0.00 0.00 42 1021.2
20260506081551 16 0 0.0 0.0 0.00 0.00 0.00 40 1021.2
20260506081040 16 0 0.0 0.0 0.00 0.00 0.00 40 1021.2
20260506080541 16 0 0.0 0.0 0.00 0.00 0.00 39 1021.2
20260506073047 17 222 1.6 16.1 0.00 0.00 0.00 37 1021.2
20260506072543 17 198 4.8 16.1 0.00 0.00 0.00 37 1021.2
20260506072039 16 176 1.6 8.0 0.00 0.00 0.00 38 1021.2
20260506071551 16 228 1.6 14.5 0.00 0.00 0.00 39 1021.2
20260506071038 15 0 1.6 14.5 0.00 0.00 0.00 41 1021.2
20260506070540 13 0 0.0 0.0 0.00 0.00 0.00 45 1021.2
20260506062041 15 0 0.0 0.0 0.00 0.00 0.00 40 1021.2
20260506061545 15 0 0.0 0.0 0.00 0.00 0.00 39 1021.2
20260506061038 16 0 0.0 0.0 0.00 0.00 0.00 39 1021.2
20260506060539 16 0 0.0 0.0 0.00 0.00 0.00 38 1021.2
20260506051037 18 205 4.8 14.5 0.00 0.00 0.00 29 1021.2
20260506050537 18 198 1.6 11.3 0.00 0.00 0.00 29 1021.2
20260506045043 18 197 4.8 12.9 0.00 0.00 0.00 28 1021.2
20260506044559 18 191 3.2 9.7 0.00 0.00 0.00 28 1021.2
20260506044038 18 278 3.2 19.3 0.00 0.00 0.00 28 1021.2
20260506043537 18 218 6.4 19.3 0.00 0.00 0.00 28 1021.2
20260506043044 18 213 3.2 11.3 0.00 0.00 0.00 28 1021.2
20260506042538 18 0 3.2 11.3 0.00 0.00 0.00 28 1021.2
20260506042041 18 231 6.4 11.3 0.00 0.00 0.00 28 1021.2
20260506041550 18 219 3.2 11.3 0.00 0.00 0.00 29 1021.2
20260506041037 18 218 6.4 16.1 0.00 0.00 0.00 29 1021.2
20260506040538 18 225 6.4 16.1 0.00 0.00 0.00 29 1021.2
20260506040049 18 212 3.2 12.9 0.00 0.00 0.00 30 1021.2
20260506035544 17 179 4.8 12.9 0.00 0.00 0.00 30 1021.2
20260506035041 17 207 3.2 9.7 0.00 0.00 0.00 32 1021.2
20260506034551 16 196 3.2 9.7 0.00 0.00 0.00 33 1021.2
20260506034039 16 151 1.6 6.4 0.00 0.00 0.00 35 1021.2
20260506033537 15 0 0.0 6.4 0.00 0.00 0.00 39 1021.2
20260506033052 15 0 0.0 6.4 0.00 0.00 0.00 40 1021.2
20260506032542 14 0 0.0 0.0 0.00 0.00 0.00 40 1021.2
20260506032041 14 0 0.0 0.0 0.00 0.00 0.00 40 1021.2
20260506031557 15 0 0.0 0.0 0.00 0.00 0.00 40 1021.2
20260506031044 15 0 0.0 0.0 0.00 0.00 0.00 39 1021.2
20260506030541 15 0 0.0 0.0 0.00 0.00 0.00 37 1021.2
20260506030050 16 0 0.0 0.0 0.00 0.00 0.00 36 1021.2
20260506025538 16 0 0.0 0.0 0.00 0.00 0.00 34 1021.2
20260506025038 17 0 0.0 0.0 0.00 0.00 0.00 33 1021.2
20260506024558 18 0 0.0 1.6 0.00 0.00 0.00 32 1021.2
20260506024038 18 0 0.0 3.2 0.00 0.00 0.00 30 1021.2
20260506023538 18 0 0.0 8.0 0.00 0.00 0.00 30 1021.2
20260506023050 18 179 1.6 8.0 0.00 0.00 0.00 30 1021.2
20260506022540 18 0 0.0 3.2 0.00 0.00 0.00 29 1021.2
20260506022037 19 277 0.0 11.3 0.00 0.00 0.00 29 1021.2
20260506021553 19 284 0.0 11.3 0.00 0.00 0.00 28 1021.2
20260506021039 19 262 1.6 11.3 0.00 0.00 0.00 28 1021.2
20260506020538 19 0 0.0 8.0 0.00 0.00 0.00 28 1021.2
20260506020045 19 249 1.6 6.4 0.00 0.00 0.00 28 1021.2
20260506015544 19 0 0.0 6.4 0.00 0.00 0.00 28 1021.2
20260506015038 20 0 1.6 9.7 0.00 0.00 0.00 28 1021.2
20260506014551 20 241 1.6 9.7 0.00 0.00 0.00 28 1021.2
20260506014041 20 173 0.0 6.4 0.00 0.00 0.00 29 1021.2
20260506013538 20 234 3.2 6.4 0.00 0.00 0.00 29 1021.2
20260506013052 20 0 0.0 6.4 0.00 0.00 0.00 29 1021.2
20260506012539 20 291 1.6 8.0 0.00 0.00 0.00 29 1021.2
20260506012041 20 236 0.0 8.0 0.00 0.00 0.00 30 1021.2
20260506011550 20 0 0.0 11.3 0.00 0.00 0.00 30 1021.2
20260506011038 20 0 3.2 11.3 0.00 0.00 0.00 30 1021.2
20260506010541 20 177 0.0 12.9 0.00 0.00 0.00 30 1021.2
20260506010043 20 242 3.2 12.9 0.00 0.00 0.00 31 1021.2
20260506005537 20 221 3.2 17.7 0.00 0.00 0.00 30 1021.2
20260506005038 20 0 4.8 17.7 0.00 0.00 0.00 30 1021.2
20260506004546 20 0 3.2 14.5 0.00 0.00 0.00 30 1021.2
20260506004038 20 217 4.8 14.5 0.00 0.00 0.00 30 1021.2
20260506003537 20 169 3.2 8.0 0.00 0.00 0.00 30 1021.2
20260506003044 20 219 3.2 9.7 0.00 0.00 0.00 30 1021.2
20260506002541 20 0 3.2 12.9 0.00 0.00 0.00 30 1021.2
20260506002039 20 201 3.2 12.9 0.00 0.00 0.00 30 1021.2
20260506001546 20 238 1.6 9.7 0.00 0.00 0.00 30 1021.2
20260506001038 20 229 3.2 9.7 0.00 0.00 0.00 30 1021.2
20260506000537 20 226 3.2 9.7 0.00 0.00 0.00 30 1021.2
20260506000048 20 210 3.2 12.9 0.00 0.00 0.00 29 1021.2
20260505235540 20 190 1.6 14.5 0.00 0.00 0.00 29 1021.2
20260505235038 20 200 6.4 16.1 0.00 0.00 0.00 29 1021.2
20260505234551 21 249 4.8 16.1 0.00 0.00 0.00 29 1021.2
20260505234040 21 243 3.2 14.5 0.00 0.00 0.00 29 1021.2
20260505233537 21 174 8.0 19.3 0.00 0.00 0.00 29 1021.2
20260505233045 21 232 8.0 19.3 0.00 0.00 0.00 29 1021.2
20260505232538 21 210 6.4 16.1 0.00 0.00 0.00 28 1021.2
20260505232039 21 249 4.8 16.1 0.00 0.00 0.00 28 1021.2
20260505231601 21 255 8.0 19.3 0.00 0.00 0.00 28 1021.2
20260505231037 21 233 9.7 19.3 0.00 0.00 0.00 28 1021.2
20260505230537 21 233 4.8 19.3 0.00 0.00 0.00 28 1021.2
20260505230055 21 238 6.4 25.7 0.00 0.00 0.00 28 1021.2
20260505225537 21 242 11.3 25.7 0.00 0.00 0.00 27 1021.2
20260505225041 21 250 6.4 24.1 0.00 0.00 0.00 27 1021.2
20260505224552 21 229 6.4 24.1 0.00 0.00 0.00 27 1021.2
20260505224038 21 221 8.0 24.1 0.00 0.00 0.00 27 1021.2
20260505223538 21 224 8.0 24.1 0.00 0.00 0.00 27 1021.2
20260505223056 21 227 9.7 27.4 0.00 0.00 0.00 27 1021.2
20260505222540 21 196 11.3 27.4 0.00 0.00 0.00 27 1021.2
20260505222039 21 238 9.7 22.5 0.00 0.00 0.00 27 1021.2
20260505221551 21 199 9.7 19.3 0.00 0.00 0.00 27 1021.2
20260505221041 21 196 6.4 16.1 0.00 0.00 0.00 27 1021.2
20260505220539 21 243 6.4 22.5 0.00 0.00 0.00 27 1021.2
20260505220048 21 232 11.3 27.4 0.00 0.00 0.00 27 1021.2
20260505215539 21 212 9.7 27.4 0.00 0.00 0.00 27 1021.2
20260505215040 21 214 8.0 30.6 0.00 0.00 0.00 27 1021.2
20260505214545 21 219 11.3 30.6 0.00 0.00 0.00 27 1021.2
20260505214039 21 219 9.7 22.5 0.00 0.00 0.00 25 1021.2
20260505213539 21 184 6.4 20.9 0.00 0.00 0.00 26 1021.2
20260505213056 21 221 8.0 19.3 0.00 0.00 0.00 27 1021.2
20260505212540 21 215 9.7 19.3 0.00 0.00 0.00 27 1021.2
20260505212040 21 249 4.8 24.1 0.00 0.00 0.00 26 1021.2
20260505211548 21 195 9.7 24.1 0.00 0.00 0.00 27 1021.2
20260505211043 21 251 6.4 19.3 0.00 0.00 0.00 27 1021.2
20260505210539 21 0 6.4 25.7 0.00 0.00 0.00 28 1021.2
20260505210047 21 240 9.7 25.7 0.00 0.00 0.00 28 1021.2
20260505205540 21 263 11.3 29.0 0.00 0.00 0.00 28 1021.2
20260505205041 22 267 9.7 33.8 0.00 0.00 0.00 27 1021.2
20260505204555 22 210 12.9 33.8 0.00 0.00 0.00 28 1021.2
20260505204039 22 193 12.9 27.4 0.00 0.00 0.00 26 1021.2
20260505203539 22 246 11.3 27.4 0.00 0.00 0.00 27 1021.2
20260505203100 22 229 9.7 25.7 0.00 0.00 0.00 29 1021.2
20260505202540 22 187 9.7 25.7 0.00 0.00 0.00 27 1021.2
20260505202041 22 280 12.9 27.4 0.00 0.00 0.00 27 1021.2
20260505201548 22 216 12.9 27.4 0.00 0.00 0.00 26 1021.2
20260505201040 22 150 12.9 25.7 0.00 0.00 0.00 28 1021.2
20260505200540 22 200 9.7 25.7 0.00 0.00 0.00 28 1021.2
20260505200049 22 214 12.9 24.1 0.00 0.00 0.00 28 1021.2
20260505195544 21 260 11.3 25.7 0.00 0.00 0.00 29 1021.2
20260505195040 21 216 12.9 27.4 0.00 0.00 0.00 29 1021.2
20260505194546 21 223 12.9 27.4 0.00 0.00 0.00 30 1021.2
20260505194040 21 209 16.1 27.4 0.00 0.00 0.00 28 1021.2
20260505193541 22 209 12.9 29.0 0.00 0.00 0.00 28 1021.2
20260505193047 22 235 9.7 29.0 0.00 0.00 0.00 29 1021.2
20260505192541 22 248 8.0 22.5 0.00 0.00 0.00 30 1021.2
20260505192040 22 250 11.3 24.1 0.00 0.00 0.00 30 1021.2
20260505191608 22 262 11.3 24.1 0.00 0.00 0.00 30 1021.2
20260505191040 22 210 11.3 22.5 0.00 0.00 0.00 30 1021.2
20260505190542 22 232 9.7 22.5 0.00 0.00 0.00 28 1021.2
20260505190044 22 228 9.7 24.1 0.00 0.00 0.00 30 1021.2
20260505185540 22 259 8.0 24.1 0.00 0.00 0.00 30 1021.2
20260505185041 22 194 9.7 24.1 0.00 0.00 0.00 30 1021.2
20260505184546 22 238 12.9 29.0 0.00 0.00 0.00 29 1021.2
20260505184041 22 8 6.4 29.0 0.00 0.00 0.00 31 1021.2
20260505183539 22 212 8.0 29.0 0.00 0.00 0.00 31 1021.2
20260505183043 22 172 4.8 20.9 0.00 0.00 0.00 32 1021.2
20260505182542 21 258 11.3 20.9 0.00 0.00 0.00 32 1021.2
20260505182043 21 308 9.7 20.9 0.00 0.00 0.00 32 1021.2
20260505181549 21 225 11.3 20.9 0.00 0.00 0.00 31 1021.2
20260505181040 21 237 11.3 24.1 0.00 0.00 0.00 31 1021.2
20260505180539 21 210 8.0 24.1 0.00 0.00 0.00 32 1021.2
20260505175539 21 257 6.4 19.3 0.00 0.00 0.00 31 1021.2
20260505175039 21 223 11.3 19.3 0.00 0.00 0.00 32 1021.2
20260505174553 21 204 8.0 19.3 0.00 0.00 0.00 32 1021.2
20260505174041 21 264 9.7 19.3 0.00 0.00 0.00 31 1021.2
20260505173539 21 218 3.2 16.1 0.00 0.00 0.00 32 1021.2
20260505173047 21 115 4.8 16.1 0.00 0.00 0.00 33 1021.2
20260505172539 21 281 6.4 17.7 0.00 0.00 0.00 33 1021.2
20260505172040 21 322 6.4 17.7 0.00 0.00 0.00 34 1021.2
20260505171552 21 359 8.0 19.3 0.00 0.00 0.00 35 1021.2
20260505171040 20 145 6.4 19.3 0.00 0.00 0.00 34 1021.2
20260505170541 20 311 8.0 17.7 0.00 0.00 0.00 34 1021.2
20260505170052 20 153 3.2 22.5 0.00 0.00 0.00 35 1021.2
20260505165540 20 284 8.0 22.5 0.00 0.00 0.00 35 1021.2
20260505165040 20 295 4.8 17.7 0.00 0.00 0.00 35 1021.2
20260505164552 20 0 8.0 22.5 0.00 0.00 0.00 34 1021.2
20260505164041 19 0 4.8 22.5 0.00 0.00 0.00 36 1021.2
20260505163540 19 12 4.8 22.5 0.00 0.00 0.00 36 1021.2
20260505163049 19 240 6.4 22.5 0.00 0.00 0.00 35 1021.2
20260505162539 20 313 8.0 22.5 0.00 0.00 0.00 34 1021.2
20260505162039 20 286 4.8 17.7 0.00 0.00 0.00 36 1021.2
20260505161553 19 214 4.8 16.1 0.00 0.00 0.00 35 1021.2
20260505161040 19 290 6.4 16.1 0.00 0.00 0.00 35 1021.2
20260505160540 19 249 4.8 19.3 0.00 0.00 0.00 35 1021.2
20260505153054 18 206 3.2 22.5 0.00 0.00 0.00 37 1021.2
20260505152539 17 333 9.7 22.5 0.00 0.00 0.00 37 1021.2
20260505152042 17 252 4.8 16.1 0.00 0.00 0.00 36 1021.2
20260505151550 18 210 6.4 16.1 0.00 0.00 0.00 36 1021.2
20260505151043 18 141 3.2 14.5 0.00 0.00 0.00 36 1021.2
20260505150540 18 155 6.4 19.3 0.00 0.00 0.00 36 1021.2
20260505140539 16 281 3.2 14.5 0.00 0.00 0.00 38 1021.2
20260505125039 12 231 0.0 0.0 0.00 0.00 0.00 47 1021.2
20260505124546 12 0 0.0 4.8 0.00 0.00 0.00 49 1021.2
20260505124037 11 0 0.0 4.8 0.00 0.00 0.00 49 1021.2
20260505123538 10 0 0.0 4.8 0.00 0.00 0.00 54 1021.2
20260505123042 9 0 0.0 0.0 0.00 0.00 0.00 58 1021.2
20260505122538 9 0 0.0 0.0 0.00 0.00 0.00 58 1021.2
20260505122039 9 0 0.0 0.0 0.00 0.00 0.00 59 1021.2
20260505121549 9 0 0.0 0.0 0.00 0.00 0.00 58 1021.2
20260505121040 10 0 0.0 0.0 0.00 0.00 0.00 57 1021.2
20260505120540 10 0 0.0 0.0 0.00 0.00 0.00 55 1021.2
20260505120051 10 0 0.0 0.0 0.00 0.00 0.00 54 1021.2
20260505115539 10 0 0.0 0.0 0.00 0.00 0.00 54 1021.2
20260505115039 11 0 0.0 0.0 0.00 0.00 0.00 53 1021.2
20260505114544 11 0 0.0 0.0 0.00 0.00 0.00 51 1021.2
20260505114038 12 0 0.0 1.6 0.00 0.00 0.00 48 1021.2
20260505113538 13 0 0.0 4.8 0.00 0.00 0.00 47 1021.2
20260505113052 13 0 0.0 4.8 0.00 0.00 0.00 45 1021.2
20260505112538 13 0 0.0 0.0 0.00 0.00 0.00 46 1021.2
20260505112040 13 0 0.0 0.0 0.00 0.00 0.00 45 1021.2
20260505111548 14 0 0.0 0.0 0.00 0.00 0.00 42 1021.2
20260505111039 15 0 0.0 1.6 0.00 0.00 0.00 40 1021.2
20260505110540 15 0 0.0 3.2 0.00 0.00 0.00 40 1021.2